Location: Bouillancy
(49.1149°N, 2.9308°E)
Time: 08:38:11
(UTC+00:00)

BREEZE-M DEB (TANK) - Pass Details

Date: 30 September 2020
Orbit: 315 x 16294 km, 49.4° (Epoch: 29 October)

Event Time Altitude Azimuth Distance (km) Brightness Sun altitude
Rises 17:53:50 0° 282° (WNW) 2,089 7.5 -5.0°
Reaches altitude 10° 17:55:16 10° 274° (W) 1,384 6.3 -5.2°
Maximum altitude 17:57:45 46° 198° (SSW) 725 3.1 -5.6°
Drops below altitude 10° 18:03:33 10° 125° (SE) 3,212 5.7 -6.6°
Enters shadow 18:08:00 - 122° (ESE) 5,289 6.8 -7.3°
